KPF6EE EGMC-EHGG

Flight info

Callsign KPF6EE
Flight time 0h 42m
Altitude 23000
Route CLN P44 RATLO M197 REDFA L620 TULIP Y12 SPY N873 GRONY
Aircraft CL60/M-SADE3FGHIJ3J4J7P2RWXY/HB1D1

Departure

Time 2026-05-06 10:41
Airport London Southend Airport (EGMC)

Arrival

Time 2026-05-06 11:24
Airport Groningen Airport Eelde (EHGG)
Time Latitude Longitude Altitude Speed Heading
2026-05-06 10:20 51.56845 0.69863 43 ft 0 kts 190°
2026-05-06 10:36 51.56844 0.69862 43 ft 1 kts 196°
2026-05-06 10:36 51.56853 0.69844 43 ft 5 kts 359°
2026-05-06 10:36 51.56893 0.69821 43 ft 7 kts 296°
2026-05-06 10:36 51.56905 0.69733 44 ft 8 kts 279°
2026-05-06 10:37 51.56914 0.69632 45 ft 9 kts 279°
2026-05-06 10:37 51.56918 0.69527 46 ft 8 kts 262°
2026-05-06 10:37 51.56909 0.69435 47 ft 8 kts 261°
2026-05-06 10:37 51.56899 0.69344 47 ft 8 kts 261°
2026-05-06 10:38 51.56876 0.69249 48 ft 9 kts 234°
2026-05-06 10:38 51.56850 0.69187 49 ft 2 kts 237°
2026-05-06 10:38 51.56849 0.69185 49 ft 0 kts 237°
2026-05-06 10:38 51.56837 0.69152 49 ft 9 kts 250°
2026-05-06 10:39 51.56875 0.69067 49 ft 9 kts 324°
2026-05-06 10:39 51.56889 0.68994 50 ft 10 kts 244°
2026-05-06 10:39 51.56818 0.68830 52 ft 21 kts 236°
2026-05-06 10:39 51.56726 0.68629 54 ft 22 kts 235°
2026-05-06 10:40 51.56633 0.68422 56 ft 23 kts 234°
2026-05-06 10:40 51.56550 0.68259 58 ft 11 kts 210°
2026-05-06 10:40 51.56519 0.68192 58 ft 6 kts 336°
2026-05-06 10:40 51.56538 0.68215 58 ft 4 kts 55°
2026-05-06 10:41 51.56693 0.68556 55 ft 81 kts 55°
2026-05-06 10:41 51.57186 0.69659 54 ft 154 kts 53°
2026-05-06 10:41 51.57853 0.71163 636 ft 173 kts 53°
2026-05-06 10:41 51.58534 0.72686 1402 ft 164 kts 52°
2026-05-06 10:42 51.59152 0.74096 2124 ft 147 kts 51°
2026-05-06 10:42 51.59753 0.75468 2620 ft 165 kts 51°
2026-05-06 10:42 51.60495 0.77122 2970 ft 206 kts 51°
2026-05-06 10:42 51.61456 0.79212 3013 ft 245 kts 51°
2026-05-06 10:43 51.62459 0.81378 3612 ft 241 kts 51°
2026-05-06 10:43 51.63468 0.83551 4369 ft 248 kts 51°
2026-05-06 10:43 51.64517 0.85791 5122 ft 256 kts 51°
2026-05-06 10:44 51.66722 0.90414 6634 ft 263 kts 51°
2026-05-06 10:44 51.67839 0.92731 7381 ft 266 kts 51°
2026-05-06 10:44 51.68979 0.95110 8139 ft 270 kts 51°
2026-05-06 10:44 51.70134 0.97539 8730 ft 279 kts 51°
2026-05-06 10:45 51.71317 1.00036 8930 ft 281 kts 51°
2026-05-06 10:45 51.72499 1.02541 8941 ft 280 kts 51°
2026-05-06 10:45 51.73676 1.05037 8937 ft 278 kts 51°
2026-05-06 10:45 51.74838 1.07499 9338 ft 268 kts 51°
2026-05-06 10:46 51.76180 1.09518 10088 ft 269 kts 27°
2026-05-06 10:46 51.77983 1.10468 10847 ft 283 kts 12°
2026-05-06 10:46 51.79966 1.11439 11174 ft 315 kts 18°
2026-05-06 10:46 51.82120 1.12722 11415 ft 342 kts 22°
2026-05-06 10:47 51.84154 1.14823 11952 ft 348 kts 41°
2026-05-06 10:47 51.85652 1.17883 12713 ft 354 kts 60°
2026-05-06 10:47 51.86706 1.21543 13462 ft 362 kts 65°
2026-05-06 10:47 51.87708 1.25278 14207 ft 369 kts 65°
2026-05-06 10:48 51.88746 1.29135 14976 ft 374 kts 65°
2026-05-06 10:48 51.89779 1.32979 15720 ft 379 kts 65°
2026-05-06 10:48 51.90842 1.36943 16480 ft 383 kts 65°
2026-05-06 10:48 51.91915 1.40949 17244 ft 387 kts 65°
2026-05-06 10:49 51.92986 1.44955 17996 ft 391 kts 65°
2026-05-06 10:49 51.94062 1.48991 18749 ft 394 kts 65°
2026-05-06 10:49 51.95158 1.53105 19514 ft 396 kts 65°
2026-05-06 10:49 51.96253 1.57223 20267 ft 398 kts 65°
2026-05-06 10:50 51.97341 1.61323 21021 ft 399 kts 66°
2026-05-06 10:50 51.98446 1.65495 21786 ft 399 kts 66°
2026-05-06 10:50 51.99435 1.69727 22483 ft 401 kts 74°
2026-05-06 10:50 52.00140 1.74141 22780 ft 413 kts 76°
2026-05-06 10:51 52.00848 1.78747 22830 ft 428 kts 76°
2026-05-06 10:51 52.01586 1.83529 22827 ft 437 kts 76°
2026-05-06 10:51 52.02327 1.88336 22825 ft 436 kts 76°
2026-05-06 10:51 52.03054 1.93069 22825 ft 432 kts 76°
2026-05-06 10:52 52.03776 1.97770 22823 ft 430 kts 76°
2026-05-06 10:52 52.04500 2.02502 22828 ft 428 kts 76°
2026-05-06 10:52 52.05212 2.07161 22826 ft 430 kts 76°
2026-05-06 10:52 52.05938 2.11930 22935 ft 441 kts 76°
2026-05-06 10:53 52.06679 2.16813 22924 ft 442 kts 76°
2026-05-06 10:53 52.07405 2.21601 22919 ft 433 kts 76°
2026-05-06 10:53 52.08118 2.26315 22924 ft 430 kts 76°
2026-05-06 10:53 52.08838 2.31091 22927 ft 428 kts 76°
2026-05-06 10:54 52.09544 2.35785 22929 ft 427 kts 76°
2026-05-06 10:54 52.10245 2.40468 22928 ft 426 kts 76°
2026-05-06 10:54 52.10949 2.45175 22930 ft 426 kts 76°
2026-05-06 10:54 52.11686 2.49836 22929 ft 427 kts 73°
2026-05-06 10:55 52.12558 2.54465 22928 ft 427 kts 72°
2026-05-06 10:55 52.13442 2.59087 22928 ft 427 kts 72°
2026-05-06 10:55 52.14317 2.63678 22924 ft 427 kts 72°
2026-05-06 10:55 52.15210 2.68373 22924 ft 427 kts 73°
2026-05-06 10:56 52.16087 2.73000 22923 ft 427 kts 73°
2026-05-06 10:56 52.16959 2.77612 22917 ft 427 kts 73°
2026-05-06 10:56 52.17826 2.82205 22923 ft 426 kts 73°
2026-05-06 10:56 52.18695 2.86828 22912 ft 427 kts 73°
2026-05-06 10:57 52.19560 2.91434 22918 ft 426 kts 73°
2026-05-06 10:57 52.20423 2.96046 22911 ft 427 kts 73°
2026-05-06 10:57 52.21296 3.00719 22914 ft 427 kts 73°
2026-05-06 10:57 52.22147 3.05291 22917 ft 426 kts 73°
2026-05-06 10:58 52.23015 3.09962 22910 ft 426 kts 73°
2026-05-06 10:58 52.23870 3.14575 22916 ft 426 kts 73°
2026-05-06 10:58 52.24721 3.19179 22915 ft 426 kts 73°
2026-05-06 10:58 52.25569 3.23776 22916 ft 426 kts 73°
2026-05-06 10:59 52.26425 3.28430 22920 ft 426 kts 73°
2026-05-06 10:59 52.27269 3.33028 22914 ft 426 kts 73°
2026-05-06 10:59 52.28111 3.37621 22911 ft 425 kts 73°
2026-05-06 10:59 52.28960 3.42267 22922 ft 425 kts 73°
2026-05-06 11:00 52.29803 3.46893 22916 ft 426 kts 73°
2026-05-06 11:00 52.30645 3.51529 22911 ft 425 kts 73°
2026-05-06 11:00 52.31484 3.56154 22914 ft 426 kts 73°
2026-05-06 11:00 52.32321 3.60785 22910 ft 426 kts 73°
2026-05-06 11:01 52.33151 3.65386 22906 ft 425 kts 74°
2026-05-06 11:01 52.33998 3.70094 22911 ft 425 kts 74°
2026-05-06 11:01 52.34835 3.74755 22903 ft 425 kts 74°
2026-05-06 11:01 52.35654 3.79331 22914 ft 425 kts 74°
2026-05-06 11:02 52.36489 3.84010 22911 ft 425 kts 74°
2026-05-06 11:02 52.37312 3.88631 22913 ft 425 kts 74°
2026-05-06 11:02 52.38137 3.93280 22908 ft 425 kts 74°
2026-05-06 11:02 52.38953 3.97886 22903 ft 425 kts 74°
2026-05-06 11:03 52.39772 4.02526 22908 ft 425 kts 74°
2026-05-06 11:03 52.40596 4.07201 22904 ft 425 kts 74°
2026-05-06 11:03 52.41415 4.11866 22902 ft 425 kts 74°
2026-05-06 11:03 52.42232 4.16525 22903 ft 425 kts 74°
2026-05-06 11:04 52.43042 4.21163 22895 ft 426 kts 74°
2026-05-06 11:04 52.43860 4.25853 22899 ft 425 kts 74°
2026-05-06 11:04 52.44669 4.30506 22903 ft 425 kts 74°
2026-05-06 11:04 52.45484 4.35209 22896 ft 426 kts 74°
2026-05-06 11:05 52.46288 4.39856 22896 ft 425 kts 74°
2026-05-06 11:05 52.47095 4.44536 22894 ft 425 kts 74°
2026-05-06 11:05 52.47901 4.49223 22899 ft 425 kts 74°
2026-05-06 11:05 52.48706 4.53909 22888 ft 426 kts 74°
2026-05-06 11:06 52.49514 4.58635 22891 ft 425 kts 74°
2026-05-06 11:06 52.50312 4.63308 22891 ft 425 kts 74°
2026-05-06 11:06 52.51114 4.68020 22891 ft 426 kts 75°
2026-05-06 11:06 52.51912 4.72723 22887 ft 426 kts 75°
2026-05-06 11:07 52.52706 4.77414 22892 ft 426 kts 75°
2026-05-06 11:07 52.53510 4.82132 22889 ft 426 kts 73°
2026-05-06 11:07 52.54711 4.86599 22882 ft 427 kts 58°
2026-05-06 11:07 52.56490 4.90563 22517 ft 433 kts 52°
2026-05-06 11:08 52.58350 4.94405 21988 ft 428 kts 51°
2026-05-06 11:08 52.60176 4.98201 21443 ft 421 kts 51°
2026-05-06 11:08 52.61980 5.01956 20893 ft 414 kts 51°
2026-05-06 11:08 52.63759 5.05668 20347 ft 408 kts 51°
2026-05-06 11:09 52.65512 5.09331 19810 ft 404 kts 51°
2026-05-06 11:09 52.67233 5.12933 19292 ft 401 kts 51°
2026-05-06 11:09 52.68966 5.16567 18784 ft 398 kts 51°
2026-05-06 11:09 52.70665 5.20133 18262 ft 395 kts 51°
2026-05-06 11:10 52.72348 5.23675 17747 ft 391 kts 51°
2026-05-06 11:10 52.74005 5.27162 17234 ft 388 kts 51°
2026-05-06 11:10 52.75667 5.30663 16719 ft 385 kts 51°
2026-05-06 11:10 52.77318 5.34145 16207 ft 382 kts 51°
2026-05-06 11:11 52.78941 5.37574 15703 ft 379 kts 51°
2026-05-06 11:11 52.80579 5.41049 15187 ft 376 kts 51°
2026-05-06 11:11 52.82190 5.44468 14673 ft 372 kts 51°
2026-05-06 11:11 52.83784 5.47857 14171 ft 369 kts 51°
2026-05-06 11:12 52.85338 5.51165 13708 ft 362 kts 51°
2026-05-06 11:12 52.86868 5.54428 13215 ft 356 kts 51°
2026-05-06 11:12 52.88374 5.57642 12737 ft 349 kts 51°
2026-05-06 11:12 52.89860 5.60818 12275 ft 342 kts 51°
2026-05-06 11:13 52.91301 5.63901 11825 ft 336 kts 51°
2026-05-06 11:13 52.92726 5.66955 11378 ft 330 kts 52°
2026-05-06 11:13 52.94122 5.69949 10955 ft 324 kts 52°
2026-05-06 11:13 52.95508 5.72925 10516 ft 319 kts 52°
2026-05-06 11:14 52.96860 5.75834 10094 ft 314 kts 52°
2026-05-06 11:14 52.98181 5.78675 9678 ft 309 kts 52°
2026-05-06 11:14 52.99498 5.81513 9275 ft 304 kts 52°
2026-05-06 11:14 53.00776 5.84271 8877 ft 299 kts 52°
2026-05-06 11:15 53.02034 5.86988 8493 ft 294 kts 52°
2026-05-06 11:15 53.03263 5.89644 8217 ft 284 kts 52°
2026-05-06 11:15 53.04483 5.92286 7837 ft 280 kts 52°
2026-05-06 11:15 53.05658 5.94832 7467 ft 275 kts 52°
2026-05-06 11:16 53.06815 5.97340 7097 ft 271 kts 52°
2026-05-06 11:16 53.07955 5.99815 6752 ft 267 kts 52°
2026-05-06 11:16 53.09075 6.02257 6393 ft 262 kts 54°
2026-05-06 11:16 53.09884 6.04971 6019 ft 259 kts 75°
2026-05-06 11:17 53.10006 6.07572 5688 ft 258 kts 94°
2026-05-06 11:17 53.09534 6.10479 5305 ft 259 kts 106°
2026-05-06 11:17 53.08935 6.13312 4965 ft 254 kts 105°
2026-05-06 11:17 53.08361 6.16051 4627 ft 250 kts 105°
2026-05-06 11:18 53.07793 6.18756 4314 ft 245 kts 105°
2026-05-06 11:18 53.07236 6.21407 3992 ft 241 kts 105°
2026-05-06 11:18 53.06676 6.24069 3674 ft 237 kts 105°
2026-05-06 11:18 53.06075 6.26644 3343 ft 236 kts 114°
2026-05-06 11:19 53.04991 6.28705 3027 ft 240 kts 135°
2026-05-06 11:19 53.03672 6.30419 2695 ft 238 kts 136°
2026-05-06 11:19 53.02519 6.32310 2424 ft 223 kts 116°
2026-05-06 11:19 53.02081 6.34520 2407 ft 189 kts 89°
2026-05-06 11:20 53.02229 6.36601 2304 ft 175 kts 70°
2026-05-06 11:20 53.02750 6.38385 2171 ft 172 kts 55°
2026-05-06 11:20 53.03474 6.39987 2037 ft 171 kts 51°
2026-05-06 11:20 53.04215 6.41545 1985 ft 171 kts 51°
2026-05-06 11:21 53.04955 6.43103 1977 ft 173 kts 51°
2026-05-06 11:21 53.05708 6.44687 1710 ft 169 kts 50°
2026-05-06 11:21 53.06387 6.46118 1531 ft 145 kts 50°
2026-05-06 11:21 53.06976 6.47356 1342 ft 131 kts 51°
2026-05-06 11:22 53.07548 6.48556 1177 ft 132 kts 53°
2026-05-06 11:22 53.08126 6.49777 993 ft 133 kts 48°
2026-05-06 11:22 53.08695 6.50974 821 ft 133 kts 52°
2026-05-06 11:22 53.09277 6.52204 639 ft 133 kts 50°
2026-05-06 11:23 53.09849 6.53412 460 ft 134 kts 52°
2026-05-06 11:23 53.10429 6.54647 287 ft 135 kts 50°
2026-05-06 11:23 53.11006 6.55879 99 ft 135 kts 49°
2026-05-06 11:23 53.11559 6.57048 21 ft 114 kts 50°
2026-05-06 11:24 53.11932 6.57865 23 ft 60 kts 46°
2026-05-06 11:24 53.12162 6.58319 21 ft 53 kts 51°
2026-05-06 11:24 53.12383 6.58786 19 ft 32 kts 51°
2026-05-06 11:24 53.12475 6.58981 19 ft 12 kts 39°
2026-05-06 11:25 53.12561 6.58965 19 ft 8 kts 343°
2026-05-06 11:25 53.12614 6.58896 19 ft 14 kts 308°
2026-05-06 11:25 53.12658 6.58803 19 ft 9 kts 309°
2026-05-06 11:25 53.12693 6.58730 19 ft 8 kts 308°
2026-05-06 11:26 53.12730 6.58654 19 ft 4 kts 311°
2026-05-06 11:26 53.12764 6.58670 19 ft 5 kts 28°
2026-05-06 11:26 53.12784 6.58704 19 ft 2 kts 90°
2026-05-06 11:26 53.12785 6.58720 19 ft 0 kts 83°